Simultaneous Nadir Overpasses (SNOs) Predictions

Prediction of SNOs between GOES-15 and METOP-B Satellite Orbit:

Table of predicted SNOs for the next 14.0 days since TLE Epoch: 7/11/2025
Index Date Time (GOES-15) GOES-15 Lat,Lon METOP-B Lat,Lon Distance(km) Time Diff (sec)
1 07/13/2025 05:17:01 -0.08, 61.26 0.79, 57.34 447.24 80
2 07/14/2025 04:53:44 -0.12, 61.27 -0.32, 62.31 118.13 80
3 07/15/2025 17:15:26 0.07, 61.34 -0.74, 57.69 416.09 80
4 07/16/2025 16:52:08 0.11, 61.35 0.37, 62.66 149.46 80
5 07/18/2025 05:13:43 -0.06, 61.30 0.67, 58.07 367.64 80
6 07/19/2025 04:50:25 -0.09, 61.31 -0.45, 63.05 197.14 80
7 07/20/2025 17:12:08 0.04, 61.40 -0.61, 58.42 338.50 80
8 07/21/2025 16:48:50 0.08, 61.41 0.51, 63.40 226.08 80
9 07/23/2025 05:10:24 -0.02, 61.37 0.53, 58.81 291.96 80
10 07/24/2025 04:47:07 -0.07, 61.39 -0.59, 63.78 272.15 80
11 07/25/2025 17:08:48 0.01, 61.48 -0.52, 59.17 264.19 80
